Location: Monrovia
(34.7865°N, 86.7139°W)
Time: 21:18:49
(UTC+00:00)

CZ-2C R/B - Pass Details

Date: 14 July 2020
Orbit: 503 x 567 km, 97.7° (Epoch: 08 August)

Event Time Altitude Azimuth Distance (km) Brightness Sun altitude
Rises 08:35:43 0° 22° (NNE) 2,769 7.7 -21.6°
Reaches altitude 10° 08:38:02 10° 32° (NNE) 1,866 6.7 -21.3°
Maximum altitude 08:41:44 34° 98° (E) 942 4.3 -20.8°
Enters shadow 08:43:48 21° 149° (SSE) 1,299 4.5 -20.5°
